Hourly Weather Barstow Heights

Today, 19 April, Monday

Time Temperature Precipitation Wind Pressure Humidity
00:00 +16°C° 0 mm 2 mps 695 mmHg 7%
01:00 +15°C° 0 mm 2 mps 695 mmHg 8%
02:00 +15°C° 0 mm 2 mps 695 mmHg 10%
03:00 +15°C° 0 mm 2 mps 695 mmHg 13%
04:00 +14°C° 0 mm 2 mps 695 mmHg 15%
05:00 +16°C° 0 mm 2 mps 695 mmHg 16%
06:00 +17°C° 0 mm 2 mps 696 mmHg 18%
07:00 +19°C° 0 mm 2 mps 696 mmHg 19%
08:00 +21°C° 0 mm 2 mps 696 mmHg 17%
09:00 +24°C° 0 mm 3 mps 696 mmHg 15%
10:00 +26°C° 0 mm 3 mps 696 mmHg 13%
11:00 +27°C° 0 mm 4 mps 696 mmHg 11%
12:00 +29°C° 0 mm 4 mps 695 mmHg 9%
13:00 +30°C° 0 mm 5 mps 695 mmHg 6%
14:00 +30°C° 0 mm 6 mps 694 mmHg 6%
15:00 +31°C° 0 mm 8 mps 694 mmHg 6%
16:00 +31°C° 0 mm 9 mps 693 mmHg 6%
17:00 +28°C° 0 mm 9 mps 693 mmHg 9%
18:00 +26°C° 0 mm 8 mps 693 mmHg 11%
19:00 +23°C° 0 mm 8 mps 693 mmHg 13%
20:00 +22°C° 0 mm 8 mps 693 mmHg 15%
21:00 +21°C° 0 mm 7 mps 692 mmHg 17%
22:00 +20°C° 0 mm 7 mps 692 mmHg 19%
23:00 +20°C° 0 mm 7 mps 692 mmHg 19%

Tomorrow, 20 April, Tuesday

Time Temperature Precipitation Wind Pressure Humidity
00:00 +19°C° 0 mm 6 mps 692 mmHg 19%
01:00 +19°C° 0 mm 6 mps 691 mmHg 19%
02:00 +17°C° 0 mm 5 mps 691 mmHg 21%
03:00 +16°C° 0 mm 5 mps 691 mmHg 22%
04:00 +15°C° 0 mm 4 mps 690 mmHg 24%
05:00 +17°C° 0 mm 4 mps 691 mmHg 22%
06:00 +19°C° 0 mm 4 mps 691 mmHg 21%
07:00 +20°C° 0 mm 4 mps 691 mmHg 20%
08:00 +22°C° 0 mm 6 mps 691 mmHg 16%
09:00 +24°C° 0 mm 7 mps 691 mmHg 13%
10:00 +28°C° 0 mm 9 mps 691 mmHg 9%
11:00 +29°C° 0 mm 9 mps 691 mmHg 9%
12:00 +29°C° 0 mm 9 mps 690 mmHg 8%
13:00 +31°C° 0 mm 10 mps 690 mmHg 8%
14:00 +29°C° 0 mm 10 mps 689 mmHg 10%
15:00 +28°C° 0 mm 11 mps 689 mmHg 13%
16:00 +28°C° 0 mm 11 mps 688 mmHg 15%
17:00 +24°C° 0 mm 10 mps 688 mmHg 19%
18:00 +22°C° 0 mm 9 mps 688 mmHg 24%
19:00 +19°C° 0 mm 9 mps 688 mmHg 28%
20:00 +18°C° 0 mm 8 mps 688 mmHg 32%
21:00 +17°C° 0 mm 8 mps 688 mmHg 36%
22:00 +15°C° 0 mm 7 mps 688 mmHg 40%
23:00 +14°C° 0 mm 7 mps 688 mmHg 46%

Day after tomorrow, 21 April, Wednesday

Time Temperature Precipitation Wind Pressure Humidity
00:00 +12°C° 0 mm 7 mps 687 mmHg 52%
01:00 +11°C° 0 mm 7 mps 687 mmHg 58%
02:00 +11°C° 0 mm 7 mps 687 mmHg 60%
03:00 +10°C° 0 mm 7 mps 687 mmHg 62%
04:00 +10°C° 0 mm 6 mps 687 mmHg 63%
05:00 +11°C° 0 mm 6 mps 688 mmHg 60%
06:00 +11°C° 0 mm 6 mps 689 mmHg 56%
07:00 +13°C° 0 mm 6 mps 689 mmHg 52%
08:00 +15°C° 0 mm 6 mps 689 mmHg 45%
09:00 +19°C° 0 mm 6 mps 690 mmHg 38%
10:00 +21°C° 0 mm 6 mps 690 mmHg 30%
11:00 +22°C° 0 mm 6 mps 690 mmHg 26%
12:00 +24°C° 0 mm 6 mps 690 mmHg 23%
13:00 +26°C° 0 mm 6 mps 689 mmHg 19%
14:00 +26°C° 0 mm 7 mps 689 mmHg 20%
15:00 +24°C° 0 mm 8 mps 689 mmHg 22%
16:00 +24°C° 0 mm 10 mps 688 mmHg 23%
17:00 +22°C° 0 mm 9 mps 688 mmHg 31%
18:00 +20°C° 0 mm 7 mps 688 mmHg 39%
19:00 +16°C° 0 mm 6 mps 688 mmHg 46%
20:00 +15°C° 0 mm 6 mps 688 mmHg 49%
21:00 +14°C° 0 mm 5 mps 689 mmHg 53%
22:00 +13°C° 0 mm 5 mps 689 mmHg 56%
23:00 +13°C° 0 mm 5 mps 688 mmHg 58%

22 April, Thursday

Time Temperature Precipitation Wind Pressure Humidity
00:00 +12°C° 0 mm 4 mps 688 mmHg 61%
01:00 +11°C° 0 mm 4 mps 688 mmHg 63%
02:00 +11°C° 0 mm 4 mps 688 mmHg 66%
03:00 +10°C° 0 mm 4 mps 688 mmHg 70%
04:00 +9°C° 0 mm 3 mps 688 mmHg 74%
05:00 +10°C° 0 mm 4 mps 689 mmHg 70%
06:00 +11°C° 0 mm 4 mps 689 mmHg 66%
07:00 +12°C° 0 mm 4 mps 690 mmHg 63%
08:00 +14°C° 0 mm 4 mps 690 mmHg 56%
09:00 +16°C° 0 mm 5 mps 691 mmHg 50%
10:00 +17°C° 0 mm 5 mps 691 mmHg 43%
11:00 +20°C° 0 mm 5 mps 691 mmHg 39%
12:00 +21°C° 0 mm 4 mps 690 mmHg 35%
13:00 +22°C° 0 mm 4 mps 690 mmHg 30%
14:00 +22°C° 0.1 mm 5 mps 689 mmHg 29%
15:00 +23°C° 0.1 mm 6 mps 689 mmHg 27%
16:00 +23°C° 0.1 mm 6 mps 688 mmHg 26%
17:00 +21°C° 0.8 mm 6 mps 689 mmHg 36%
18:00 +19°C° 0.8 mm 6 mps 689 mmHg 46%
19:00 +15°C° 0.8 mm 5 mps 690 mmHg 57%
20:00 +15°C° 0 mm 5 mps 690 mmHg 57%
21:00 +15°C° 0 mm 5 mps 690 mmHg 58%
22:00 +14°C° 0 mm 4 mps 690 mmHg 58%
23:00 +14°C° 0 mm 4 mps 690 mmHg 59%

23 April, Friday

Time Temperature Precipitation Wind Pressure Humidity
00:00 +13°C° 0 mm 4 mps 690 mmHg 60%
01:00 +13°C° 0 mm 3 mps 690 mmHg 61%
02:00 +12°C° 0 mm 3 mps 690 mmHg 62%
03:00 +12°C° 0 mm 3 mps 690 mmHg 62%
04:00 +12°C° 0 mm 3 mps 690 mmHg 63%
05:00 +13°C° 0 mm 3 mps 691 mmHg 58%
06:00 +14°C° 0 mm 3 mps 691 mmHg 53%
07:00 +16°C° 0 mm 3 mps 692 mmHg 48%
08:00 +18°C° 0 mm 3 mps 692 mmHg 41%
09:00 +20°C° 0 mm 3 mps 692 mmHg 35%
10:00 +22°C° 0 mm 4 mps 693 mmHg 29%
11:00 +25°C° 0 mm 4 mps 692 mmHg 25%
12:00 +27°C° 0 mm 5 mps 692 mmHg 21%
13:00 +28°C° 0 mm 6 mps 692 mmHg 17%
14:00 +28°C° 0 mm 7 mps 692 mmHg 18%
15:00 +28°C° 0 mm 8 mps 691 mmHg 19%
16:00 +27°C° 0 mm 9 mps 691 mmHg 19%
17:00 +26°C° 0 mm 9 mps 691 mmHg 24%
18:00 +23°C° 0 mm 8 mps 691 mmHg 29%
19:00 +21°C° 0 mm 8 mps 691 mmHg 34%
20:00 +20°C° 0 mm 7 mps 691 mmHg 36%
21:00 +18°C° 0 mm 7 mps 691 mmHg 39%
22:00 +17°C° 0 mm 7 mps 691 mmHg 42%
23:00 +16°C° 0 mm 6 mps 691 mmHg 46%

24 April, Saturday

Time Temperature Precipitation Wind Pressure Humidity
00:00 +15°C° 0 mm 6 mps 691 mmHg 49%
01:00 +14°C° 0 mm 5 mps 691 mmHg 53%
02:00 +14°C° 0 mm 5 mps 691 mmHg 55%
03:00 +13°C° 0 mm 5 mps 691 mmHg 57%
04:00 +13°C° 0 mm 5 mps 691 mmHg 59%
05:00 +14°C° 0 mm 5 mps 691 mmHg 54%
06:00 +15°C° 0 mm 4 mps 691 mmHg 48%
07:00 +17°C° 0 mm 4 mps 692 mmHg 43%
08:00 +19°C° 0 mm 5 mps 692 mmHg 35%
09:00 +22°C° 0 mm 6 mps 692 mmHg 28%
10:00 +24°C° 0 mm 7 mps 692 mmHg 20%
11:00 +26°C° 0 mm 7 mps 692 mmHg 18%
12:00 +27°C° 0 mm 8 mps 692 mmHg 16%
13:00 +28°C° 0 mm 9 mps 692 mmHg 15%
14:00 +27°C° 0 mm 10 mps 691 mmHg 16%
15:00 +26°C° 0 mm 10 mps 691 mmHg 18%
16:00 +26°C° 0 mm 11 mps 691 mmHg 20%
17:00 +23°C° 0 mm 10 mps 691 mmHg 23%
18:00 +21°C° 0 mm 9 mps 691 mmHg 26%
19:00 +18°C° 0 mm 8 mps 691 mmHg 29%
20:00 +17°C° 0 mm 7 mps 691 mmHg 32%
21:00 +16°C° 0 mm 7 mps 691 mmHg 36%
22:00 +15°C° 0 mm 7 mps 691 mmHg 39%
23:00 +15°C° 0 mm 6 mps 691 mmHg 41%
Show more